Regional Weather Roundup
Issued by NWS

Home | Current Version | Previous Version | Text Only | Print | Product List | Glossary Off
Versions: 1 2 3 4 5 6 7 8 9 10 11 12 13 14 15 16 17 18 19 20 21 22 23 24 25 26 27 28 29 30 31 32 33 34 35 36 37 38 39 40 41 42 43 44 45 46 47 48 49 50

000
ASUS43 KMKX 300300
RWRWI

WISCONSIN REGIONAL WEATHER ROUNDUP
NATIONAL WEATHER SERVICE MILWAUKEE/SULLIVAN WI
1000 PM CDT SAT APR 29 2017

NOTE: "FAIR" INDICATES FEW OR NO CLOUDS BELOW 12,000 FEET WITH NO
SIGNIFICANT WEATHER AND/OR OBSTRUCTIONS TO VISIBILITY.

WIZ001-002-006>008-014>016-023>028-300400-
NORTHWEST WISCONSIN

CITY           SKY/WX    TMP DP  RH WIND       PRES   REMARKS
SUPERIOR ARPT  CLOUDY    38  24  56 E10       30.32R WCI  31
ASHLAND        CLOUDY    35  24  64 NE8       30.33R WCI  29
HAYWARD        CLOUDY    39  20  46 NE7       30.28R WCI  34
SIREN          CLOUDY    44  21  40 CALM      30.28R
CUMBERLAND     CLOUDY    43  25  49 NE10      30.25R
RICE LAKE      CLOUDY    45  25  46 NE12      30.25R
CHETEK         CLOUDY    46  28  50 NE9       30.23R
LADYSMITH      CLOUDY    45  28  51 NE9       30.26R
EAU CLAIRE     NOT AVBL
MENOMONIE      CLOUDY    50  26  38 NE9       30.20F
NEW RICHMOND   CLOUDY    47  24  40 NE13G21   30.22S
OSCEOLA        CLOUDY    48  24  39 NE10      30.26R
$$

WIZ003>005-009-010-017-018-300400-
NORTH CENTRAL WISCONSIN

CITY           SKY/WX    TMP DP  RH WIND       PRES   REMARKS
MANITOWISH WTR CLOUDY    37  21  53 NE7       30.25F WCI  31
ARBOR VITAE    PTCLDY    42  24  49 E9        30.23F
WOODRUFF       PTCLDY    42  24  49 E9        30.23F
RHINELANDER    MOCLDY    43  23  45 E10G20    30.23F
EAGLE RIVER    MOCLDY    40  17  39 E10       30.24F WCI  33
LAND O LAKES   CLOUDY    39  21  48 E6        30.28F WCI  35
PHILLIPS       CLOUDY    40  26  55 NE6       30.25R
TOMAHAWK       CLOUDY    44  24  45 NE6       30.22F
MEDFORD        CLOUDY    44  26  48 E7        30.20R
MERRILL        MOCLDY    46  23  40 E12G22    30.20F
$$

WIZ029-030-035-036-043>047-300400-
CENTRAL WISCONSIN

CITY           SKY/WX    TMP DP  RH WIND       PRES   REMARKS
WAUSAU         CLOUDY    44  29  55 E9        30.21S
MOSINEE        CLOUDY    43  28  56 E8        30.23S
MARSHFIELD     CLOUDY    43  30  60 E12       30.19R
STEVENS POINT  CLOUDY    42  26  52 E15       30.19F
WAUPACA        CLOUDY    46  27  47 NE10G21   30.21F
WAUTOMA        CLOUDY    44  27  51 NE17G24   30.17
WISC RAPIDS    CLOUDY    45  27  49 E10G23    30.20R
CAMP DOUGLAS   NOT AVBL
$$

WIZ011>013-019>022-031-037>040-048>050-300400-
NORTHEAST WISCONSIN

CITY           SKY/WX    TMP DP  RH WIND       PRES   REMARKS
ANTIGO         MOCLDY    42  20  41 E14G20    30.24F
SHAWANO        CLOUDY    47  29  49 NE17      30.25S
OCONTO         NOT AVBL
STURGEON BAY   CLOUDY    43  29  57 NE14G21   30.25F
GREEN BAY      CLOUDY    45  30  55 NE20      30.22S
MANITOWOC      NOT AVBL
APPLETON       CLOUDY    45  21  39 NE18G31   30.18R
CLINTONVILLE   CLOUDY    45  27  49 NE15G24   30.23S
OSHKOSH        LGT RAIN  43  30  60 NE17G31   30.17R
$$

WIZ032>034-041-042-053>061-300400-
SOUTHWEST WISCONSIN

CITY           SKY/WX    TMP DP  RH WIND       PRES   REMARKS
LA CROSSE      CLOUDY    49  30  48 E12       30.15S
SPARTA         CLOUDY    46  31  57 E12G20    30.16S
VIROQUA        CLOUDY    43  28  55 E17G26    30.11S
BOSCOBEL       CLOUDY    44  30  57 NE13G23   30.10F
PRAIRIE DU CHI CLOUDY    43  31  63 NE7       30.09F
PLATTEVILLE    CLOUDY    40  36  86 NE18G26   30.04F WCI  30
$$

WIZ056-057-062-063-064-067-068-300400-
SOUTH CENTRAL WISCONSIN

CITY           SKY/WX    TMP DP  RH WIND       PRES   REMARKS
REEDSBURG      NOT AVBL
BARABOO/DELLS  CLOUDY    42  27  55 E17G26    30.13S
LONE ROCK      NOT AVBL
MINERAL POINT  CLOUDY    41  36  81 NE20      30.05F
MADISON        DRIZZLE   38  34  85 NE15      30.10F WCI  29
MIDDLETON      CLOUDY    40  36  85 NE14G20   30.11F WCI  32
WATERTOWN      RAIN      38  38 100 NE9       30.11R WCI  31
MONROE         CLOUDY    37  36  93 NE18G29   30.05R WCI  27
JANESVILLE     CLOUDY    39  39 100 NE13G18   30.05R WCI  32
$$

WIZ051-052-058>065-066-070>072-300400-
SOUTHEAST WISCONSIN

CITY           SKY/WX    TMP DP  RH WIND       PRES   REMARKS
MILWAUKEE      LGT RAIN  41  39  93 NE23G32   30.08F
WAUKESHA       NOT AVBL
MILWAUKEE/TIMM LGT RAIN  37  34  87 NE15      30.11F WCI  28
RACINE         LGT RAIN  41  38  89 NE23G32   30.06F
KENOSHA        LGT RAIN  42  39  89 NE23G31   30.02F
FOND DU LAC    LGT RAIN  41  31  67 NE13G23   30.17R
SHEBOYGAN      LGT RAIN  40  36  86 E21       30.17F WCI  30
WEST BEND      RAIN      36  36 100 E18G24    30.12F WCI  25
JUNEAU         LGT RAIN  37  34  89 N16G22    30.14R WCI  27
$$

LSZ147-162-300400-
LAKE SUPERIOR

STATION/POSITION TIME  TEMP    WIND        PRES    WAVE
                       AIR SEA DIR/SP/G            HT/PER
                 (UTC) (F)     (DEG/KT/KT) (MB)    (FT/S)
DEVILS ISLAND    0200   37      60/ 10/ 11 1027.0R
PORT WING        0230   38      40/  6/  9 1026.8R
SAXON HARBOR     0240   35     190/  2/  3 1026.1R
$$

LMZ867-665-643>646-300400-
LAKE MICHIGAN

STATION/POSITION TIME  TEMP    WIND        PRES    WAVE
                       AIR SEA DIR/SP/G            HT/PER
                 (UTC) (F)     (DEG/KT/KT) (MB)    (FT/S)
CHAMBERS ISLAND  0240   40     360/ 15/ 18 1025.1F
N MID LAKE BUOY  0150   39 37   30/  8/ 10 1027.2R   1/ 3
NORTHPORT PIER   0240   41      20/  9/ 11 1025.7S
KEWAUNEE LAKESHO 0230   42      40/ 12/ 19 1023.0F
SHEBOYGAN LAKESH 0200   40      40/ 21/ 23 1023.2F
PORT WASHINGTON  0230   40      40/ 21/ 26 1022.0F
MILWAUKEE LAKESH 0230   40      40/ 25/ 29   N/A
S MID LAKE BUOY  0150   42 41   40/ 17/ 21 1020.5F   5/ 7
KENOSHA   LAKESH 0200   41      40/ 25/ 30 1019.0
$$

TC  - TEMPERATURE IN CELSIUS
VSB - VISIBILITY IN STATUTE MILES
WCI - WIND CHILL INDEX
HX  - HEAT INDEX





USA.gov is the U.S. government's official web portal to all federal, state and local government web resources and services.